Location: Unspecified
(22.6800°N, 112.2000°E)
Time: 04:16:54
(UTC+08:00)

S-56A Canister/Altair - Pass Details

Date: 29 July 2021
Orbit: 632 x 2500 km, 38.9° (Epoch: 27 September)

Event Time Altitude Azimuth Distance (km) Brightness Sun altitude
Rises 18:57:07 0° 289° (WNW) 6,108 15.9 2.8°
Reaches altitude 10° 19:01:35 10° 297° (WNW) 5,156 14.0 1.9°
Maximum altitude 19:15:25 40° 2° (N) 3,146 10.9 -1.1°
Drops below altitude 10° 19:27:04 10° 69° (ENE) 4,375 11.0 -3.6°
Sets 19:30:29 0° 77° (ENE) 5,131 11.2 -4.4°
